Regional Weather Roundup
Issued by NWS Cleveland, OH

Home | Current Version | Previous Version | Text Only | Print | Product List | Glossary Off
Versions: 1 2 3 4 5 6 7 8 9 10 11 12 13 14 15 16 17 18 19 20 21 22 23 24 25 26 27 28 29 30 31 32 33 34 35 36 37 38 39 40 41 42 43 44 45 46 47 48 49 50

000
ASUS41 KCLE 190600
RWRCLE
OHIO REGIONAL WEATHER ROUNDUP
NATIONAL WEATHER SERVICE WILMINGTON, OH
200 AM EDT THU APR 19 2018

NOTE: "FAIR" INDICATES FEW OR NO CLOUDS BELOW 12,000 FEET WITH NO
SIGNIFICANT WEATHER AND/OR OBSTRUCTIONS TO VISIBILITY.

OHZ001>008-015>018-024>027-034-035-043-044-190700-
   NORTHWEST OHIO

CITY           SKY/WX    TMP DP  RH WIND       PRES   REMARKS
DEFIANCE       CLOUDY    35  33  92 N10       29.86R FOG     WCI  27
FINDLAY        MOCLDY    37  29  72 NE9       29.81S
TOLEDO EXPRESS CLOUDY    35  34  96 NE12G17   29.83F FOG     WCI  27
TOLEDO EXEC    CLOUDY    34  31  88 NE8       29.84F FOG     WCI  27
LIMA           CLOUDY    35  31  85 SW3       29.82R
$$

OHZ009>014-019>023-028>033-038-089-190700-
   NORTHEAST OHIO

CITY           SKY/WX    TMP DP  RH WIND       PRES   REMARKS
CLE-HOPKINS    CLOUDY    36  32  85 NE13      29.81F
CLE-LAKEFRONT  FLURRIES  36  31  82 N13       29.79S
CUY CO. ARPT   NOT AVBL
LORAIN-ELYRIA  CLOUDY    35  27  72 NE18      29.79F WCI  24
ASHTABULA      CLOUDY    34  30  85 N6        29.77F WCI  29
AKRON-CANTON   CLOUDY    36  30  79 N7        29.77R
WOOSTER        NOT AVBL
MANSFIELD      FAIR      33  30  88 N5        29.77S WCI  29
YOUNGSTOWN     FLURRIES  34  31  88 N7        29.74F WCI  28
$$

OHZ042-051>053-060>062-070>072-077>081-190700-
  SOUTHWEST OHIO

CITY           SKY/WX    TMP DP  RH WIND       PRES   REMARKS
CINC-COVINGTON CLOUDY    44  32  62 W21G31    29.89R
CINC-LUNKEN    CLOUDY    46  35  65 W14G24    29.89R
HAMILTON       CLOUDY    44  32  62 W16G24    29.89R
DAYTON         NOT AVBL
WRIGHT-PAT AFB NOT AVBL
DAYTON GENERAL CLOUDY    43  31  62 W16G25    29.85R
WILMINGTON     CLOUDY    43  34  70 W16       29.84R
$$

OHZ036-037-039>041-045>050-054>059-063>069-073>076-082>088-190700-
  CENTRAL AND SOUTHEAST OHIO

CITY           SKY/WX    TMP DP  RH WIND       PRES   REMARKS
COLUMBUS       CLOUDY    41  38  89 W6        29.78S FOG
OSU AIRPORT    FAIR      35  32  88 NW6       29.79R
BOLTON FIELD   MOCLDY    37  36  94 W5        29.80F FOG
RICKENBACK AFB NOT AVBL
NEWARK         CLOUDY    43  41  93 W5        29.78R
MARION         MOCLDY    32  30  92 NE5       29.79S WCI  27
LANCASTER      CLOUDY    45  44  97 W5        29.80R
ZANESVILLE     FAIR      43  41  93 NW3       29.76R
NEW PHILLY     CLOUDY    40  37  89 N6        29.74F
$$



USA.gov is the U.S. government's official web portal to all federal, state and local government web resources and services.